Location: Unspecified
(0.0000°N, 0.0000°E)
Time: 00:26:41
(UTC+00:00)

Vanguard 1 - All Passes

Search period start: 07 May 2016 00:00
Search period end: 17 May 2016 00:00
Orbit: 650 x 3834 km, 34.2° (Epoch: 05 May)

Date Brightness Start Highest point End Pass type
(mag) Time Alt. Az. Time Alt. Az. Time Alt. Az.
07 May - 06:55:35 10° NNW 07:03:47 42° NE 07:18:17 10° ESE daylight
07 May - 09:14:58 10° WNW 09:26:55 67° SW 09:48:05 10° SE daylight
07 May - 11:40:25 10° WSW 11:55:31 31° SSW 12:14:56 10° SSE daylight
07 May - 14:14:55 10° SW 14:29:47 19° S 14:43:32 10° SE daylight
07 May - 16:47:28 10° SSW 17:03:16 25° SSE 17:14:13 10° ESE daylight
07 May - 19:14:29 10° SW 19:30:16 57° SSE 19:38:39 10° ENE visible
07 May - 21:42:26 10° WSW 21:51:48 35° NW 21:57:29 10° NNE visible
08 May - 07:16:04 10° NW 07:24:45 58° NE 07:41:03 10° ESE daylight
08 May - 09:36:33 10° WNW 09:48:51 53° SSW 10:09:37 10° SE daylight
08 May - 12:03:55 10° WSW 12:18:47 26° SSW 12:36:42 10° SSE daylight
08 May - 14:38:51 10° SW 14:53:55 20° S 15:07:06 10° SE daylight
08 May - 17:09:05 10° SW 17:26:04 31° SSE 17:37:04 10° ESE daylight
08 May - 19:36:03 10° SW 19:51:49 77° SE 19:59:55 10° ENE visible
08 May - 22:05:35 10° W 22:12:37 22° NW 22:17:27 10° N visible
09 May - 05:20:29 10° N 05:24:50 16° NE 05:30:37 10° ENE visible
09 May - 07:36:47 10° NW 07:45:51 79° NE 08:03:20 10° SE daylight
09 May - 09:58:32 10° W 10:11:05 42° SSW 10:31:05 10° SE daylight
09 May - 12:27:53 10° WSW 12:42:24 22° SSW 12:58:54 10° SSE daylight
09 May - 15:01:58 10° SW 15:17:50 21° S 15:30:58 10° SE daylight
09 May - 17:30:32 10° SW 17:48:33 39° SSE 17:59:26 10° E daylight
09 May - 19:57:53 10° SW 20:13:04 79° NW 20:20:53 10° NE visible
09 May - 22:30:00 10° WNW 22:33:32 13° NW 22:36:27 10° NNW visible
10 May - 05:39:55 10° N 05:45:46 25° NE 05:54:49 10° E daylight
10 May - 07:57:46 10° WNW 08:07:10 80° SW 08:25:16 10° SE daylight
10 May - 10:20:56 10° W 10:33:36 34° SSW 10:52:33 10° SE daylight
10 May - 12:52:02 10° SW 13:06:23 20° S 13:21:44 10° SE daylight
10 May - 15:24:22 10° SSW 15:41:26 24° SSE 15:54:44 10° ESE daylight
10 May - 17:51:57 10° SW 18:10:44 50° SSE 18:21:23 10° ENE visible
10 May - 20:20:05 10° WSW 20:34:06 56° NW 20:41:35 10° NE visible
11 May - 06:00:01 10° NNW 06:06:36 38° NE 06:18:02 10° ESE daylight
11 May - 08:19:02 10° WNW 08:28:45 61° SSW 08:46:55 10° SE daylight
11 May - 10:43:49 10° WSW 10:56:29 28° SSW 11:14:11 10° SSE daylight
11 May - 13:15:59 10° SW 13:30:33 20° S 13:45:19 10° SE daylight
11 May - 15:46:15 10° SSW 16:04:41 29° SSE 16:18:06 10° ESE daylight
11 May - 18:13:28 10° SW 18:32:37 64° SSE 18:42:57 10° ENE visible
11 May - 20:42:46 10° WSW 20:54:59 39° NW 21:02:00 10° NNE visible
12 May - 06:20:26 10° NW 06:27:28 57° NE 06:40:38 10° ESE daylight
12 May - 08:40:38 10° W 08:50:39 47° SSW 09:08:24 10° SE daylight
12 May - 11:07:10 10° WSW 11:19:44 23° SSW 11:36:08 10° SSE daylight
12 May - 13:39:19 10° SW 13:54:42 21° S 14:09:26 10° SE daylight
12 May - 16:07:51 10° SW 16:27:33 36° SSE 16:40:59 10° E daylight
12 May - 18:35:10 10° SW 18:54:12 82° SE 19:04:12 10° ENE visible
12 May - 21:06:06 10° W 21:15:51 26° NW 21:22:06 10° N visible
13 May - 04:25:41 10° NNE 04:28:13 12° NE 04:31:11 10° ENE visible
13 May - 06:41:08 10° NW 06:48:30 82° NE 07:02:45 10° SE daylight
13 May - 09:02:36 10° W 09:12:49 37° SSW 09:29:47 10° SE daylight
13 May - 11:30:53 10° SW 11:43:21 21° S 11:58:39 10° SE daylight
13 May - 14:01:58 10° SSW 14:18:39 23° SSE 14:33:43 10° ESE daylight
13 May - 16:29:18 10° SW 16:50:05 44° SSE 17:03:22 10° E daylight
13 May - 18:57:08 10° WSW 19:15:33 77° NW 19:25:10 10° NE visible
13 May - 21:30:22 10° WNW 21:36:51 17° NW 21:41:37 10° N visible
14 May - 04:44:36 10° N 04:49:07 21° NE 04:55:36 10° E visible
14 May - 07:02:08 10° WNW 07:09:46 73° SW 07:24:31 10° SE daylight
14 May - 09:25:01 10° WSW 09:35:18 29° SSW 09:51:13 10° SSE daylight
14 May - 11:54:37 10° SW 12:07:16 19° S 12:21:57 10° SE daylight
14 May - 14:24:02 10° SSW 14:42:16 27° SSE 14:57:45 10° ESE daylight
14 May - 16:50:45 10° SW 17:12:17 55° SSE 17:25:18 10° ENE daylight
14 May - 19:19:29 10° WSW 19:36:40 58° NW 19:45:53 10° NE visible
15 May - 05:04:33 10° NNW 05:09:55 35° NE 05:18:38 10° ESE visible
15 May - 07:23:27 10° WNW 07:31:19 53° SSW 07:46:01 10° SE daylight
15 May - 09:47:54 10° WSW 09:58:06 24° SSW 10:12:48 10° SSE daylight
15 May - 12:18:00 10° SW 12:31:21 19° S 12:46:06 10° SE daylight
15 May - 14:45:43 10° SSW 15:05:29 32° SSE 15:21:17 10° E daylight
15 May - 17:12:18 10° SW 17:34:13 69° SE 17:46:53 10° ENE daylight
15 May - 19:42:19 10° WSW 19:57:40 42° NW 20:06:22 10° NNE visible
16 May - 05:24:57 10° NW 05:30:44 56° NE 05:41:01 10° ESE visible
16 May - 07:45:06 10° W 07:53:09 39° SSW 08:07:20 10° SE daylight
16 May - 10:11:13 10° SW 10:21:15 20° S 10:34:48 10° SSE daylight
16 May - 12:40:47 10° SSW 12:55:24 21° SSE 13:10:49 10° SE daylight
16 May - 15:07:10 10° SW 15:28:20 39° SSE 15:44:16 10° E daylight
16 May - 17:34:03 10° SW 17:55:52 86° SE 18:08:08 10° NE daylight
16 May - 20:05:48 10° W 20:18:39 30° NW 20:26:35 10° NNE visible
